Find Starlink 36849

NORAD ID: 68304 Int'l Des: 2026-057 Owner: SPXS Country: US Constellation: starlink operational
LEOCIRCULARRETROGRADE

リアルタイム位置

3D地球を読み込み中...

Starlink 36849について

説明を読み込み中...

次回通過

Passes for default location (London). Set your location on the main map for personalized predictions.

高度履歴

Loading altitude history...

軌道要素

1 68304U 26057L 26125.59591884 .00071032 00000-0 47246-3 0 9995
2 68304 97.2866 250.8762 0002396 99.2300 260.9236 15.75221415 7248
Epoch: May 5, 2026 • Age: 12 hours

現在のステータス

高度 370.3 km
速度 7.69 km/s
衛星直下点 -65.95°S, 160.61°E
打ち上げ日 Mar 20, 2026
運用期間 0.1 years
タイプ internet

技術仕様

分類 Payload
質量 575.00 kg
乾燥質量 530.00 kg
総質量 575.00 kg
長さ 0.30 m
直径 4.10 m
スパン 29.00 m
形状 Box + pan
製造者 SPXS
バスタイプ Starlink V2MO
フェーズステータス In Orbit
所有者/国 SPXS/US

Most Searched